Hondo, TX

4:24 PM CST on December 07, 2019 (GMT -0600)
Hondo Municipal

Weather History for KHDO - October, 2019

Change the Weather History Date:

Friday, October 18, 2019

  Actual Average Record
Temperature  
Mean Temperature 68 °F -  
Max Temperature 84 °F 79 °F 100 °F (2003)
Min Temperature 52 °F 56 °F 44 °F (2017)
Cooling Degree Days 3    
Growing Degree Days 18 (Base 50)    
Moisture  
Dew Point 53 °F    
Average Humidity 64    
Maximum Humidity 89    
Minimum Humidity 38    
Precipitation  
Precipitation 0.00 in - - ()
Sea Level Pressure  
Sea Level Pressure 29.80 in    
Wind  
Wind Speed 6 mph (East)    
Max Wind Speed 12 mph    
Max Gust Speed -    
Visibility 10 miles    
Events      
Averages and records for this station are not official NWS values.
T = Trace of Precipitation, MM = Missing Value Source: NWS Daily Summary

Daily Weather History Graph

Daily Weather History Graph

Search for Another Location

Airport or City:

Astronomy

Oct. 18, 2019 Rise Set
Actual Time 7:39 AM CDT 7:03 PM CDT
Civil Twilight 7:15 AM CDT 7:27 PM CDT
Nautical Twilight 6:48 AM CDT 7:55 PM CDT
Astronomical Twilight 6:20 AM CDT 8:22 PM CDT
Moon 10:38 PM CDT (10/18) 11:57 AM CDT (10/18)
Length of Visible Light 12h 11m
Length of Day
11h 23m
Waning Gibbous, 78% of the Moon is Illuminated
Oct 18
Waning Gibbous
Oct 21
Last Quarter
Oct 27
New
Nov 4
First Quarter
Nov 12
Full

Hourly Weather History & Observations

Time (CDT) Temp. Heat Index Dew Point Humidity Pressure Visibility Wind Dir Wind Speed Gust Speed Precip Events Conditions
12:51 AM 54.0 °F - 48.9 °F 83% 29.88 in 10.0 mi ENE 4.6 mph - N/A   Clear
1:51 AM 54.0 °F - 48.9 °F 83% 29.88 in 10.0 mi NNE 4.6 mph - N/A   Clear
2:51 AM 54.0 °F - 50.0 °F 86% 29.87 in 10.0 mi North 5.8 mph - N/A   Mostly Cloudy
3:18 AM 55.0 °F - 50.0 °F 83% 29.90 in 10.0 mi NNE 4.6 mph - N/A   Overcast
4:51 AM 57.0 °F - 48.9 °F 74% 29.85 in 10.0 mi ENE 5.8 mph - N/A   Overcast
5:19 AM 55.0 °F - 48.0 °F 77% 29.88 in 10.0 mi ENE 4.6 mph - N/A   Scattered Clouds
5:51 AM 55.0 °F - 48.9 °F 80% 29.86 in 10.0 mi NNE 3.5 mph - N/A   Partly Cloudy
6:51 AM 52.0 °F - 48.9 °F 89% 29.87 in 10.0 mi North 4.6 mph - N/A   Clear
7:51 AM 52.0 °F - 48.0 °F 86% 29.86 in 10.0 mi NNE 4.6 mph - N/A   Clear
8:51 AM 59.0 °F - 48.9 °F 69% 29.86 in 10.0 mi ENE 4.6 mph - N/A   Clear
9:51 AM 63.0 °F - 48.0 °F 58% 29.87 in 10.0 mi ESE 4.6 mph - N/A   Clear
10:51 AM 66.9 °F - 46.0 °F 47% 29.85 in 10.0 mi East 5.8 mph - N/A   Clear
11:51 AM 72.0 °F - 48.9 °F 44% 29.84 in 10.0 mi South 6.9 mph - N/A   Clear
12:51 PM 75.0 °F - 52.0 °F 44% 29.82 in 10.0 mi Variable 5.8 mph - N/A   Clear
1:51 PM 78.1 °F - 53.1 °F 42% 29.78 in 10.0 mi Variable 5.8 mph - N/A   Clear
2:51 PM 81.0 °F 80.8 °F 55.9 °F 42% 29.73 in 10.0 mi South 8.1 mph - N/A   Clear
3:51 PM 82.0 °F 81.6 °F 55.9 °F 41% 29.71 in 10.0 mi SSE 11.5 mph - N/A   Clear
4:51 PM 84.0 °F 83.0 °F 55.9 °F 38% 29.69 in 10.0 mi South 9.2 mph - N/A   Clear
5:51 PM 82.9 °F 82.4 °F 57.0 °F 41% 29.68 in 10.0 mi SSE 11.5 mph - N/A   Clear
6:51 PM 78.1 °F - 57.9 °F 50% 29.68 in 10.0 mi SSE 9.2 mph - N/A   Clear
7:51 PM 75.0 °F - 59.0 °F 57% 29.69 in 10.0 mi SE 5.8 mph - N/A   Clear
8:51 PM 70.0 °F - 60.1 °F 71% 29.71 in 10.0 mi NE 3.5 mph - N/A   Clear
9:51 PM 69.1 °F - 60.1 °F 73% 29.71 in 10.0 mi East 5.8 mph - N/A   Clear
10:51 PM 70.0 °F - 60.1 °F 71% 29.72 in 10.0 mi ESE 8.1 mph - N/A   Clear
11:51 PM 71.1 °F - 62.1 °F 73% 29.73 in 10.0 mi SE 9.2 mph - N/A   Clear